Location: Bon Acre
(42.6442°N, 73.5758°W)
Time: 22:18:47
(UTC+00:00)

AQUARIUS - Pass Details

Date: 14 December 2025
Orbit: 634 x 635 km, 98.0° (Epoch: 21 January)

Event Time Altitude Azimuth Distance (km) Brightness Sun altitude
Rises 22:23:38 0° 156° (SSE) 2,921 7.5 -11.1°
Reaches altitude 10° 22:25:51 10° 152° (SSE) 2,017 6.6 -11.5°
Maximum altitude 22:30:10 59° 74° (ENE) 735 4.1 -12.2°
Drops below altitude 10° 22:34:31 10° 355° (N) 2,033 6.6 -12.9°
Sets 22:36:45 0° 351° (N) 2,946 7.4 -13.3°
